Skip Page Navigation
NASA JPL Caltech
NASA Logo - Jet Propulsion Laboratory + View the NASA Portal
+ Center for Near-Earth Object Studies
JPL Home Earth Solar System Stars & Galaxies Technology
JPL Solar System Dynamics
BODIES ORBITS EPHEMERIDES TOOLS PHYSICAL DATA DISCOVERY FAQ SITE MAP
JPL Small-Body Database Browser
Search: [ help ]  
100078 (1992 RZ2)
Classification: Main-belt Asteroid          SPK-ID: 2100078
Ephemeris | Orbit Diagram | Orbital Elements | Mission Design | Physical Parameters | Discovery Circumstances | Close-Approach Data ]

[ show orbit diagram ]
Orbital Elements at Epoch 2459000.5 (2020-May-31.0) TDB
Reference: JPL 18 (heliocentric ecliptic J2000)
 Element Value Uncertainty (1-sigma)   Units 
e .2132434025598733 8.2377e-08  
a 2.631056423077605 1.5411e-08 au
q 2.070000999093527 2.1244e-07 au
i 17.43758345121919 6.0727e-06 deg
node 340.8853460453979 1.4274e-05 deg
peri 40.58208695305775 1.7676e-05 deg
M 152.1723392015777 1.3518e-05 deg
tp 2458341.588806676786
(2018-Aug-11.08880668)
5.5214e-05 TDB
period 1558.811744900202
4.27
1.3696e-05
3.75e-08
d
yr
n .2309451421429005 2.0291e-09 deg/d
Q 3.192111847061684 1.8697e-08 au
  Orbit Determination Parameters
   # obs. used (total)      601  
   data-arc span      14914 days (40.83 yr)  
   first obs. used      1979-06-25  
   last obs. used      2020-04-24  
   planetary ephem.      DE431  
   SB-pert. ephem.      SB431-N16  
   condition code      0  
   norm. resid. RMS      .54893  
   source      ORB  
   producer      Otto Matic  
   solution date      2020-May-20 17:50:01  

Additional Information
 Earth MOID = 1.09708 au 
 Jupiter MOID = 2.37426 au 
 T_jup = 3.303 
[ show covariance matrix ]

Ephemeris | Orbit Diagram | Orbital Elements | Mission Design | Physical Parameters | Discovery Circumstances | Close-Approach Data ]

Physical Parameter Table
Parameter Symbol Value Units Sigma Reference Notes
absolute magnitude H 15.0   n/a MPO366375  

100078 (1992 RZ2)          Discovered 1992-Sep-02 by Elst, E. W. at La Silla
Reference: 20051019/Numbers.arcLast Updated: 2005-10-26

[ show close-approach data ]
Alternate Designations
 1992 RZ2 = 2001 VQ100 
Ephemeris | Orbit Diagram | Orbital Elements | Mission Design | Physical Parameters | Discovery Circumstances | Close-Approach Data ]
ABOUT SSD CREDITS/AWARDS PRIVACY/COPYRIGHT GLOSSARY LINKS
FirstGov 2020-Oct-27 11:06 UT
(server date/time)  
NASA Home Page
Site Manager:   Ryan S. Park
Webmaster  Alan B. Chamberlin